Home   Weather   Stange   Past weeks

Flag for Norway Past Weather in Stange, Norway — Yesterday and Last 2 Weeks

Now
21 °F

Cold.


Feels Like: 21 °F
Forecast: 22 / 28 °F
Wind: 2 mph from Southeast

Location: Haugedalshogda

Current Time: Jan 22, 2017 at 4:58:58 am

Latest Report: Jan 22, 2017 at 4:00 am


Visibility: N/A

Pressure: 30.32 "Hg

Humidity: 93%

Dew Point: 19 °F

Location of StangeLocation

Past Weather in Stange — Graph

°F

Stange Temperature Yesterday

Maximum temperature yesterday: 28 °F (at 3:00 am)
Minimum temperature yesterday: 13 °F (at 9:00 am)
Average temperature yesterday: 19 °F

High & Low Weather Summary for the Past Weeks

 TemperatureHumidityPressure
High41 °F (Jan 19, 1:00 pm)95% (Jan 11, 7:00 pm)30.49 "Hg (Jan 11, 7:00 pm)
Low-11 °F (Jan 15, 8:00 am)69% (Jan 16, 2:00 pm)28.61 "Hg (Jan 11, 5:00 pm)
Average16 °F88%29.92 "Hg
* Reported Jan 7 3:00 am — Jan 22 3:00 am, Stange, Weather by CustomWeather, © 2017

Note: Actual official high and low records may vary slightly from our data, if they occured in-between our weather recording intervals... More about our weather records

Advertising

Stange Weather History for the Previous 24 Hours

Scroll right to see more
 ConditionsComfort  
Time TempWeatherWind HumidityBarometerVisibility
3:00 am
Sun, Jan 22
21 °FCold.2 mph93%30.34 "HgN/A
2:00 am21 °FCold.1 mph92%30.35 "HgN/A
1:00 am20 °FCold.1 mph93%30.37 "HgN/A
12:00 am20 °FCold.No wind92%30.38 "HgN/A
11:00 pm
Sat, Jan 21
20 °FCold.No wind93%30.39 "HgN/A
10:00 pm19 °FCold.1 mph92%30.39 "HgN/A
9:00 pm17 °FCold.No wind92%30.40 "HgN/A
8:00 pm16 °FCold.No wind93%30.41 "HgN/A
7:00 pm14 °FCold.1 mph90%30.42 "HgN/A
6:00 pm15 °FCold.1 mph90%30.42 "HgN/A
5:00 pm15 °FCold.1 mph90%30.43 "HgN/A
4:00 pm22 °FCold.1 mph94%30.40 "HgN/A
3:00 pm20 °FCold.1 mph91%30.42 "HgN/A
2:00 pm23 °FCold.1 mph92%30.42 "HgN/A
1:00 pm19 °FCold.1 mph86%30.43 "HgN/A
12:00 pm18 °FCold.2 mph91%30.44 "HgN/A
11:00 am14 °FCold.1 mph87%30.45 "HgN/A
10:00 am15 °FCold.2 mph90%30.44 "HgN/A
9:00 am13 °FCold.1 mph89%30.42 "HgN/A
8:00 am16 °FCold.1 mph93%30.40 "HgN/A
7:00 am17 °FCold.1 mph93%30.39 "HgN/A
6:00 am18 °FCold.1 mph93%30.37 "HgN/A
5:00 am21 °FCold.1 mph94%30.37 "HgN/A
4:00 am22 °FCold.No wind91%30.36 "HgN/A
Weather by CustomWeather, © 2017

See weather overviewHow to use our weather pages